Погода в Кайфыне

Китай     34°47′00″N   114°20′42″E
темп.,
°C
ветер,
м/с
пор.,
м/с
влажн.,
%
обл.,
%
осадки,
мм/ч
давл.,
гПа
погр.,
м
12 мая, ср
ср1223:00+19ююв224910 0.0 100911
02:00+18юв22556 0.0 100814
05:00+16ююв22665 0.0 100811
08:00+21юв225954 0.0 1009292
11:00+28юв3336100 0.0 10081346
14:00+31юв442934 0.0 10061893
17:00+31ююв553096 0.0 10042150
20:00+25юв4549100 0.0 100572
13 мая, чт
чт1323:00+23ю4126334 0.0 1007288
02:00+22ююв377261 0.0 1006179
05:00+21ююв367639 0.0 1006193
08:00+25ююв456444 0.0 1007555
11:00+29юв554732 0.0 10061869
14:00+32юв663799 0.0 10042660
17:00+28юв5754100 0.0 1004868
20:00+25юв4965100 0.0 1004250
14 мая, пт
пт1423:00+23юв31075100 0.0 1005266
02:00+21вюв397957 0.0 1005235
05:00+21вюв4973100 0.0 1004292
08:00+21вюв4883100 0.9 1005358
11:00+20вюв4892100 4.2 1004395
14:00+20в4896100 24.8 1003459
17:00+21в3696100 2.6 1002290
20:00+21св3699100 18.8 1002244
15 мая, сб
сб1523:00+21всв239993 1.3 1002123
02:00+21всв2299100 1.6 100184
05:00+21всв2399100 0.1 1001124
08:00+22св1196100 0.3 1002158
11:00+25с3485100 0.2 1002531
14:00+27сз3470100 3.9 1000902
17:00+27с2369100 2.9 1000815
20:00+23ссз61181100 6.0 1003412
16 мая, вс
вс1623:00+14ссв13208799 0.7 1007708
02:00+13с101890100 2.6 1008811
05:00+13ссв101890100 7.3 1008829
08:00+14с101886100 7.5 1011931
11:00+15с91681100 0.1 10121066
14:00+15ссв51470100 0.1 10131047
17:00+15с31176100 0.0 1012408
20:00+16сз2256100 0.0 101431